Location: Bj�rn�ya
(74.5000°N, 19.0000°E)
Time: 08:11:21
(UTC+02:00)

Envisat - Pass Details

Date: 03 February 2022
Orbit: 764 x 765 km, 98.2° (Epoch: 20 May)

Event Time Altitude Azimuth Distance (km) Brightness Sun altitude
Rises 08:29:11 0° 52° (NE) 3,245 6.4 -6.7°
Reaches altitude 10° 08:31:34 10° 46° (NE) 2,317 5.6 -6.6°
Maximum altitude 08:36:24 45° 335° (NNW) 1,045 3.3 -6.3°
Drops below altitude 10° 08:41:14 10° 265° (W) 2,315 5.1 -6.1°
Sets 08:43:36 0° 259° (W) 3,240 5.9 -6.0°
